Regional Weather Roundup
Issued by NWS Upton, NY

Current Version | Previous Version | Graphics & Text | Print | Product List | Glossary Off
Versions: 1 2 3 4 5 6 7 8 9 10 11 12 13 14 15 16 17 18 19 20 21 22 23 24 25 26 27 28 29 30 31 32 33 34 35 36 37 38 39 40 41 42 43 44 45 46 47 48 49 50

000
ASUS41 KOKX 010304
RWROKX

REGIONAL WEATHER ROUNDUP
NATIONAL WEATHER SERVICE NEW YORK NY
1100 PM EDT SAT APR 30 2016

NOTE: "FAIR" INDICATES FEW OR NO CLOUDS BELOW 12,000 FEET WITH NO
SIGNIFICANT WEATHER AND/OR OBSTRUCTIONS TO VISIBILITY.

NYZ071-072-176-178-NJZ106-104-010400-
NEW YORK CITY METRO AREA


CITY           SKY/WX    TMP DP  RH WIND       PRES   REMARKS
CENTRAL PARK   CLEAR     50  37  61 S8        30.26S
LAGUARDIA APRT PTCLDY    51  37  58 S8        30.24S
KENNEDY INTL   MOCLDY    49  38  65 SE7       30.26S
NEWARK/LIBERTY MOCLDY    52  39  61 SE5       30.24S
BRNX BOT. GARD   N/A     48  36  61 SE6       30.24S
TETERBORO      CLEAR     51  34  52 CALM      30.22S
$$

NYZ177-179-078>081-010400-
LONG ISLAND NEW YORK

CITY           SKY/WX    TMP DP  RH WIND       PRES   REMARKS
FARMINGDALE    CLEAR     46  37  71 S6        30.26R
ISLIP          PTCLDY    47  36  65 S5        30.25S
SHIRLEY        CLEAR     45  37  73 CALM      30.27S
RIVERHEAD        N/A     43  39  87 CALM      30.26S
WESTHAMPTON    CLEAR     36  34  92 CALM      30.27F
EAST HAMPTON   FAIR      38  33  84 CALM      30.26F
MONTAUK POINT    N/A     45  37  73 CALM      30.27F
$$

NYZ052-065-067-010400-
HUDSON VALLEY

CITY           SKY/WX    TMP DP  RH WIND       PRES   REMARKS
WHITE PLAINS   CLEAR     45  37  73 SE5       30.23S
NEWBURGH       PTCLDY    52  34  50 VRB5      30.22R
MONTGOMERY     CLEAR     50  37  61 SW9       30.21R
POUGHKEEPSIE   PTCLDY    54  36  50 SE6       30.21R
ALBANY         MOCLDY    57  38  48 S5        30.18R
$$

NJZ001-105-106-008-010-013-015-019>022-104-010400-
NEW JERSEY

CITY           SKY/WX    TMP DP  RH WIND       PRES   REMARKS
NEWARK/LIBERTY MOCLDY    52  39  61 SE5       30.24S
TETERBORO      CLEAR     51  34  52 CALM      30.22S
CALDWELL       CLOUDY    50  35  56 CALM      30.23S
MORRISTOWN     MOCLDY    45  37  76 CALM      30.23S
SOMERVILLE     CLOUDY    48  39  71 CALM      30.22R
SUSSEX         CLOUDY    47  42  83 CALM      30.22S
ANDOVER          N/A     51  37  58 CALM      30.22R
TRENTON        CLOUDY    50  36  58 S5        30.23S
MILLVILLE      CLOUDY    48  40  73 CALM      30.23F
ATLANTIC CITY  CLOUDY    49  40  71 SE5       30.24S
WRIGHTSTOWN    CLOUDY    46  38  74 S2        30.21F
TOMS RIVER     CLOUDY    43  36  75 CALM      30.25S
BELMAR         MOCLDY    47  39  74 SE3       30.25S
$$

PAZ047>061-062-071-010400-
EASTERN PENNSYLVANIA

CITY           SKY/WX    TMP DP  RH WIND       PRES   REMARKS
PHILADELPHIA   CLOUDY    53  35  50 SE6       30.24S
ALLENTOWN      CLOUDY    56  41  57 S8        30.21R
SCRANTON       CLOUDY    52  41  66 VRB5      30.18F
$$

CTZ002-004>006-009-010-012-RIZ004-006-007-MAZ004-011-015-010400-
SOUTHERN NEW ENGLAND
 IN CT

CITY           SKY/WX    TMP DP  RH WIND       PRES   REMARKS
BRADLEY INTL   PTCLDY    48  30  49 S10       30.23S
HARTFORD       CLEAR     49  33  54 S8        30.25S
DANBURY        CLEAR     47  36  65 CALM      30.25R
WTRBRY/OXFORD    N/A     45  34  65 S6        30.25S
BRIDGEPORT     CLEAR     48  38  68 S6        30.26S
MERIDEN        CLEAR     47  34  60 S7        30.26S
NEW HAVEN      CLEAR     45  35  68 S5        30.26F
CHESTER        FAIR      45  36  70 CALM      30.25F
GROTON         CLEAR     45  41  86 S6        30.26F
WILLIMANTIC    CLEAR     46  35  65 CALM      30.26S

 IN RI

CITY           SKY/WX    TMP DP  RH WIND       PRES   REMARKS
PROVIDENCE     PTCLDY    43  34  70 SW6       30.27S
BLOCK ISLAND   CLEAR     43  34  70 S5        30.27
WESTERLY       CLEAR     43  33  68 CALM      30.27F

 IN MA

CITY           SKY/WX    TMP DP  RH WIND       PRES   REMARKS
BOSTON         PTCLDY    47  34  60 S12       30.24F
WORCESTER      PTCLDY    44  29  55 SW14      30.22S
WESTFIELD      PTCLDY    49  30  48 S10       30.22S
PROVINCETOWN   PTCLDY    44  34  67 S6        30.27F
NANTUCKET      CLEAR     41  35  79 CALM      30.26F
$$

ANZ330-335-338-340-345-350-353-355-010400-
COASTAL MARINE OBSERVATIONS


STATION/POSITION TIME  SKY/WX   TEMP    WIND        PRES    VSBY  WAVE
                                AIR SEA DIR/SP/G                  HT/PER
                 (UTC)          (F)     (DEG/KT/KT) (MB)    (MI)  (FT/S)
NY HARB ENTRANCE 0150            49 51  150/ 10/ 12 1024.1          4/ 8
20S FIRE ISLAND  0150            47 49  130/  8/ 10 1024.5          4/ 7
GREAT SOUTH BAY  0200            48 58  150/  8/  8   N/A
23 SSW MONTAUK P 0250            46 48  120/  6/  8 1024.2          4/ 7
15 E BARNEGAT LI 0222               51                N/A           5/ 9
HUDSON CANYON    0150            48 48              1024.4          6/ 8
KINGS POINT      0200            49 55              1023.8
EXECUTION ROCKS  NOT AVBL
CENTRAL LI SOUND 0200            48     170/  8/ 10   N/A           1/ 3
EASTERN LI SOUND 0200            47 48  160/  6/  8   N/A
ROBBINS REEF     0200            51     140/ 15/ 17 1023.1
$$


>>>>>>>>>>>>>>>>>>>>>>>>>>>> KEY <<<<<<<<<<<<<<<<<<<<<<<<<<<
>                                                          <
>     SKY/WX - SKY CONDITION/PRESENT WEATHER               <
>     TMP    - TEMPERATURE IN FAHRENHEIT                   <
>     DP     - DEWPOINT IN FAHRENHEIT                      <
>     RH     - RELATIVE HUMIDITY IN PERCENT                <
>     WIND   - DIRECTION AND SPEED IN MPH                  <
>     PRES   - MEAN SEA LEVEL PRESSURE IN INCHES OF HG     <
>     WCI    - WIND CHILL INDEX                            <
>     VSB    - VISIBILITY IN MILES                         <
>     HX     - HEAT INDEX                                  <
>     TC     - TEMPERATURE IN CELSIUS                      <
>     VRB    - VARIABLE WIND DIRECTION                     <
>                                                          <
>>>>>>>>>>>>>>>>>>>>>>>>>>>> KEY <<<<<<<<<<<<<<<<<<<<<<<<<<<





USA.gov is the U.S. government's official web portal to all federal, state and local government web resources and services.